This is the latest recevied weather packets stored in our database for station/object YO8CLN-10. If no packets are shown the sender has not sent any weather packets the latest 1 day(s).
| Time | Temp. | Humidity | Pressure | Rain* | Wind** | Luminosity | Snow |
|---|---|---|---|---|---|---|---|
| 1836274429 | 7.78° C | 87% | 1111 hPa | 0 mm | 0 m/s | - | - |
| 1836274279 | 7.78° C | 88% | 1111 hPa | 0 mm | 0 m/s | - | - |
| 1778014839 | 6.67° C | 59% | 1111 hPa | 0 mm | 0 m/s | - | - |
| 1778014238 | 6.67° C | 59% | 1111 hPa | 0 mm | 0.45 m/s, 180° | - | - |
| 1778013638 | 7.22° C | 58% | 1111 hPa | 0 mm | 0 m/s | - | - |
| 1778013037 | 7.78° C | 57% | 1111 hPa | 0 mm | 0 m/s | - | - |
| 1778012437 | 7.78° C | 57% | 1111 hPa | 0 mm | 0 m/s | - | - |
| 1778011836 | 7.78° C | 57% | 1111 hPa | 0 mm | 0 m/s | - | - |
| 1778011236 | 7.78° C | 56% | 1111 hPa | 0 mm | 0 m/s | - | - |
| 1778010635 | 8.33° C | 55% | 1111 hPa | 0 mm | 0 m/s | - | - |
| 1778010034 | 8.33° C | 53% | 1111 hPa | 0 mm | 0 m/s | - | - |
| 1778009434 | 9.44° C | 52% | 1111 hPa | 0 mm | 0 m/s | - | - |
| 1778008833 | 10° C | 51% | 1111 hPa | 0 mm | 0 m/s | - | - |
| 1778008233 | 10° C | 50% | 1111 hPa | 0 mm | 0 m/s | - | - |
| 1778007632 | 10.56° C | 49% | 1111 hPa | 0 mm | 0 m/s | - | - |
| 1778007032 | 11.11° C | 48% | 1111 hPa | 0 mm | 0 m/s | - | - |
| 1778006431 | 11.67° C | 47% | 1111 hPa | 0 mm | 0 m/s | - | - |
| 1778005830 | 11.67° C | 46% | 1111 hPa | 0 mm | 0 m/s | - | - |
| 1778005230 | 12.78° C | 43% | 1111 hPa | 0 mm | 0.89 m/s, 202° | - | - |
| 1778004629 | 13.33° C | 41% | 1111 hPa | 0 mm | 0.89 m/s, 202° | - | - |
| 1778004029 | 13.89° C | 40% | 1111 hPa | 0 mm | 0 m/s | - | - |
| 1778003428 | 15° C | 38% | 1111 hPa | 0 mm | 0 m/s | - | - |
| 1778002828 | 15.56° C | 38% | 1111 hPa | 0 mm | 0 m/s | - | - |
| 1778002227 | 16.67° C | 35% | 1111 hPa | 0 mm | 0 m/s | - | - |
| 1778001626 | 17.78° C | 34% | 1111 hPa | 0 mm | 0 m/s | - | - |
* Rain latest hour (hover to see other rain measurements)
** Current wind speed in m/s (hover to see current wind gust speed)